Regional Weather Roundup
Issued by NWS Albany, NY

Home | Current Version | Previous Version | Text Only | Print | Product List | Glossary On
Versions: 1 2 3 4 5 6 7 8 9 10 11 12 13 14 15 16 17 18 19 20 21 22 23 24 25 26 27 28 29 30 31 32 33 34 35 36 37 38 39 40 41 42 43 44 45 46 47 48 49 50
000
ASUS41 KALY 100210
RWRALY

NEW YORK STATE HOURLY WEATHER ROUNDUP
NATIONAL WEATHER SERVICE ALBANY NY
1000 PM EDT WED JUL 09 2014

NOTE: "FAIR" INDICATES FEW OR NO CLOUDS BELOW 12,000 FEET WITH NO
SIGNIFICANT WEATHER AND/OR NO OBSTRUCTIONS TO VISIBILITY.

NYZ032-033-038>043-046>054-057>066-NYZ062>081-100300-
EAST


CITY           SKY/WX    TMP DP  RH WIND       PRES   REMARKS
ALBANY         MOCLDY    67  64  90 SW3       29.94R
GLENS FALLS    PTCLDY    67  66  97 MISG      29.92R
POUGHKEEPSIE   CLOUDY    73  63  70 CALM      29.94R
NEWBURGH       MOCLDY    72  64  78 SW8       29.96R
MONTGOMERY     PTCLDY    67  64  90 SW5       29.95R
WHITE PLAINS   MOCLDY    72  66  81 CALM      29.95R
ISLIP          CLOUDY    75  68  78 W12       29.93R
NEW YORK CITY  MOCLDY    81  63  54 CALM      29.92R
CENTRAL PARK   MOCLDY    73  68  84 CALM      29.96R
$$

NYZ005>009-017-018-044>046-055-056-100300-
CENTRAL


CITY           SKY/WX    TMP DP  RH WIND       PRES   REMARKS
FULTON         CLOUDY    61  54  77 CALM      29.97R
SYRACUSE       PTCLDY    64  56  75 CALM      29.98R
ROME           CLEAR     62  57  83 CALM      29.98R
ELMIRA         CLEAR     65  62  90 CALM      29.98R
BINGHAMTON     CLEAR     67  59  75 CALM      30.00R
$$

NYZ026>034-041>043-100300-
NORTH


CITY           SKY/WX    TMP DP  RH WIND       PRES   REMARKS
WATERTOWN      CLEAR     60  53  77 S5        29.95R
FORT DRUM      NOT AVBL
MASSENA        CLEAR     63  57  81 SW9       29.91R
SARANAC LAKE   CLEAR     58  51  78 CALM      29.94R
PLATTSBURGH    CLOUDY    70  53  54 CALM      29.88R
$$

NYZ001>004-010>016-019>021-100300-
WEST


CITY           SKY/WX    TMP DP  RH WIND       PRES   REMARKS
NIAGARA FALLS  PTCLDY    64  52  64 NW6       29.98R
BUFFALO        PTCLDY    64  52  64 NW5       29.99R
DUNKIRK        CLEAR     62  56  80 S6        30.00R
JAMESTOWN      CLEAR     59  52  77 W5        30.04R
WELLSVILLE     CLEAR     58  53  84 W6        30.05R
ROCHESTER      MOCLDY    66  57  72 W3        29.98R
PENN YAN       CLEAR     62  59  90 CALM      29.99R
$$

             KEY
       WCI = WIND CHILL INDEX
       VSB = VISIBILITY
       HX  = HEAT INDEX
$$


USA.gov is the U.S. government's official web portal to all federal, state and local government web resources and services.